Regional Weather Roundup
Issued by NWS State College, PA

Home | Current Version | Previous Version | Text Only | Print | Product List | Glossary On
Versions: 1 2 3 4 5 6 7 8 9 10 11 12 13 14 15 16 17 18 19 20 21 22 23 24 25 26 27 28 29 30 31 32 33 34 35 36 37 38 39 40 41 42 43 44 45 46 47 48 49 50
000
ASUS41 KCTP 200210
RWRCTP

REGIONAL WEATHER ROUNDUP
NATIONAL WEATHER SERVICE STATE COLLEGE PA
900 PM EST THU JAN 19 2017

Note: "fair" indicates few or no clouds below 12,000 feet with no
significant weather and/or obstructions to visibility.

* = STATION THAT DOES NOT REPORT PRECIPITATION /E.G. RAIN...SNOW...ETC/
    THUNDER OR FOG.

PAZ002>004-007>009-013>016-020>023-029>032-200300-
WESTERN PENNSYLVANIA

CITY           SKY/WX    TMP DP  RH WIND       PRES   REMARKS
ERIE           CLOUDY    34  32  92 E7        29.98F FOG
MEADVILLE      MOCLDY    35  31  85 CALM      29.95F
FRANKLIN*        N/A     34  28  80 S5        29.98S
NEW CASTLE     FAIR      32  31  96 E6        29.97F
BEAVER COUNTY  CLEAR     34  32  93 CALM      29.95F
BUTLER*        CLOUDY    28  25  86 NE6       29.97F
PITTSBURGH INT CLOUDY    35  33  92 VRB3      29.94F
PITTSBURGH     PTCLDY    36  30  79 NE5       29.93F
INDIANA*       CLEAR     30  30 100 CALM      29.99F FOG
LATROBE        CLEAR     32  32 100 CALM      29.97F
WASHINGTON CO* CLOUDY    28  28 100 CALM      29.94F
$$

PAZ004>006-010>012-017>019-024>028-033>037-041-042-045-046-049>053-200300-
CENTRAL PENNSYLVANIA

CITY           SKY/WX    TMP DP  RH WIND       PRES   REMARKS
BRADFORD       CLOUDY    33  33 100 S3        29.95S FOG
DUBOIS         CLOUDY    33  29  85 CALM      29.95S
CLEARFIELD     CLOUDY    32  32 100 CALM      29.97F
JOHNSTOWN      CLOUDY    36  33  89 E3        29.93F
ALTOONA        CLOUDY    33  30  88 CALM      29.97F
STATE COLLEGE  CLEAR     32  30  93 CALM      29.99S
WILLIAMSPORT   CLOUDY    35  32  88 CALM      30.00F
SELINSGROVE    PTCLDY    30  29  96 CALM      30.02S
FT INDIANTOWN  CLOUDY    34  34 100 CALM      30.01R
CAPITAL CITY   CLOUDY    36  30  79 CALM      30.02R
HARRISBURG     CLOUDY    36  33  89 CALM      30.02R
YORK           CLOUDY    31  31 100 CALM      30.02R
$$

PAZ038>040-043-044-047-048-054-055-060>062-067>071-200300-
EASTERN PENNSYLVANIA

CITY           SKY/WX    TMP DP  RH WIND       PRES   REMARKS
SCRANTON       CLOUDY    39  32  76 NE8       30.00F
MOUNT POCONO   CLOUDY    33  29  85 N8        29.96F
ALLENTOWN      CLOUDY    37  30  75 NE5       30.02F
QUAKERTOWN*    PTCLDY    32  30  93 CALM      30.02S
READING        PTCLDY    37  34  89 CALM      30.01R
LANCASTER      CLOUDY    40  34  79 CALM      30.03R
COATESVILLE    PTCLDY    39  34  81 CALM      30.03R
POTTSTOWN      CLOUDY    36  31  82 CALM      30.03S
BLUE BELL      PTCLDY    32  32 100 CALM      30.01S
DOYLESTOWN     CLOUDY    36  32  85 NE5       30.00F
WILLOW GROVE   NOT AVBL
NORTH PHILA    CLOUDY    37  32  82 N3        30.04F
PHILADELPHIA   CLOUDY    42  34  73 CALM      30.04R
$$




USA.gov is the U.S. government's official web portal to all federal, state and local government web resources and services.